Simultaneous Nadir Overpasses (SNOs) Predictions

Prediction of SNOs between AQUA and METOP-B Satellite Orbit:

Table of predicted SNOs for the next 14.0 days since TLE Epoch: 7/15/2023
Index Date (AQUA) Time (AQUA) Lat,Lon (AQUA) SZA (AQUA ) Date (METOP-B) Time (METOP-B) Lat,Lon (METOP-B) SZA (METOP-B ) Distance(km) Time Diff (sec)
1 07/15/2023 23:09:20 74.61,-171.36 53.17 07/15/2023 23:08:28 74.63,-171.29 53.19 2.81 52
2 07/15/2023 23:58:45 -74.69, -3.91 126.75 07/15/2023 23:59:09 -74.66, -3.86 126.78 3.26 24
3 07/18/2023 17:01:49 74.62, -79.48 53.64 07/18/2023 17:01:25 74.62, -79.56 53.64 2.48 24
4 07/18/2023 17:51:14 -74.70, 87.99 126.28 07/18/2023 17:52:05 -74.70, 88.00 126.27 0.95 51
5 07/21/2023 10:04:52 -74.58,-155.12 125.90 07/21/2023 10:03:43 -74.61,-155.15 125.86 3.41 69
6 07/21/2023 10:54:19 74.68, 12.28 54.22 07/21/2023 10:54:21 74.69, 12.40 54.22 3.75 2
7 07/21/2023 11:43:47 -74.90, 179.37 125.55 07/21/2023 11:44:58 -74.93,-179.64 125.56 28.93 71
8 07/24/2023 03:57:21 -74.64, -63.33 125.30 07/24/2023 03:56:40 -74.64, -63.34 125.29 0.20 41
9 07/24/2023 04:46:47 74.69, 104.18 54.77 07/24/2023 04:47:18 74.71, 104.21 54.79 2.83 31
10 07/26/2023 21:00:13 74.12,-137.81 54.74 07/26/2023 20:59:06 74.07,-140.38 54.78 78.42 67
11 07/26/2023 21:49:48 -74.69, 28.46 124.65 07/26/2023 21:49:35 -74.70, 28.58 124.64 3.75 13



Historial Predications of SNOs between AQUA and METOP-B
